Погода в Вейхерово

Польша     54°36′44″N   18°11′40″E
темп.,
°C
ветер,
м/с
пор.,
м/с
влажн.,
%
обл.,
%
осадки,
мм/ч
давл.,
гПа
погр.,
м
23 октября, сб
сб2323:00+6з714705 0.5 10041009
02:00+6з7148035 0.7 1006904
05:00+6з714788 0.1 1007947
08:00+6з7148310 0.4 1009827
11:00+8сз7136846 0.9 10131519
14:00+8сз6106222 1.1 10171265
17:00+6сз6106610 0.0 10201079
20:00+4сз26745 0.0 1024175
24 октября, вс
вс2423:00+3з227621 0.0 102623
02:00+3з227615 0.0 102724
05:00+3з2276100 0.0 102816
08:00+3юз2279100 0.0 102925
11:00+7юз3671100 0.0 1030255
14:00+9юз4670100 0.0 1029712
17:00+8юз3673100 0.0 1028155
20:00+5ююз398585 0.0 1028183
25 октября, пн
пн2523:00+5ююз4118689 0.0 1028243
02:00+4ююз4128262 0.0 1026255
05:00+4ююз513779 0.0 1025276
08:00+4ююз514755 0.0 1023283
11:00+8ююз611535 0.0 1022345
14:00+11ююз69431 0.0 1021531
17:00+9ююз510520 0.0 1020363
20:00+7юз41261100 0.0 1020294
26 октября, вт
вт2623:00+6юз41171100 0.0 1020250
02:00+6юз41076100 0.0 1019203
05:00+6юз41077100 0.0 1019206
08:00+7юз4107999 0.0 1018259
11:00+9зюз5107497 0.0 1019416
14:00+9зюз498283 0.0 1019394
17:00+10зюз378375 0.0 1019415
20:00+9зюз4108748 0.0 1020414
27 октября, ср
ср2723:00+8зюз411955 0.0 1020335
02:00+7з41295100 0.0 1020351
05:00+7зюз41195100 0.0 1020356
08:00+7зюз51195100 0.0 1020356
11:00+10зюз51077100 0.0 1021523
14:00+11зюз51074100 0.0 1021728
17:00+10зюз51080100 0.0 1022595
20:00+10з51088100 0.0 1023438